Location: Berg
(48.4333°N, 13.9167°E)
Time: 05:49:56
(UTC+00:00)

ATLAS CENTAUR R/B - Pass Details

Date: 19 January 2021
Orbit: 475 x 670 km, 64.7° (Epoch: 06 March)

Event Time Altitude Azimuth Distance (km) Brightness Sun altitude
Rises 05:45:17 0° 192° (SSW) 2,548 4.8 -10.2°
Reaches altitude 10° 05:47:36 10° 181° (S) 1,656 4.0 -9.9°
Maximum altitude 05:50:50 30° 119° (ESE) 886 3.3 -9.4°
Drops below altitude 10° 05:54:03 10° 57° (ENE) 1,650 4.3 -8.9°
Sets 05:56:21 0° 47° (NE) 2,538 5.1 -8.5°
